EW5828 Edisto Island SC US current weather conditions

sailwx.info

Wind from 067

Air temperature 5.6° C
Dewpoint -2.0° C

Last reported at 2020-Jan-20 08:01 UTC.
Time now 2020-Jan-20 08:32 UTC

Location: N 32°34' W 080°20'.
View on Google Maps.

See reports from other nearby stations

  
Tides and Currents Weather Stations Pressure Air Temp Water Temp Dewpoint Dewpoint Depression Visibility Wind Speed Wind Dir Waves Ship Positions
date/time (UTC)wind fromknots sea level pressurealtimeterstation pressurevisibilityair tempwater tempwave heightnotes
2020-Jan-20 08:01 067 5.6
2020-Jan-20 07:48 046 5.6
2020-Jan-20 07:30 030 5.6
2020-Jan-20 07:15 045 5.6
2020-Jan-20 07:00 076 5.6
2020-Jan-20 06:45 068 6.1
2020-Jan-20 06:31 040 6.1
2020-Jan-20 06:16 274 6.1
2020-Jan-20 06:01 276 6.7
2020-Jan-20 05:46 292 6.7
2020-Jan-20 05:31 217 6.7
2020-Jan-20 05:15 259 6.7
2020-Jan-20 04:46 263 7.2
2020-Jan-20 04:32 280 7.2
2020-Jan-20 04:16 284 7.2
2020-Jan-20 04:01 259 7.8
2020-Jan-20 03:46 277 7.8
2020-Jan-20 03:30 308 7.8
2020-Jan-20 03:04 301 8.3
2020-Jan-20 02:46 232 8.3
2020-Jan-20 02:31 296 8.9
2020-Jan-20 02:15 313 8.9
2020-Jan-20 02:00 279 8.9
2020-Jan-20 01:46 294 8.9
2020-Jan-20 01:33 273 8.9
2020-Jan-20 01:15 279 9.4
2020-Jan-20 01:01 250 9.4
2020-Jan-20 00:45 231 10.0
2020-Jan-20 00:32 269 10.0
2020-Jan-20 00:16 283 10.0
2020-Jan-20 00:01 315 10.6
2020-Jan-19 23:47 277 10.6
2020-Jan-19 23:31 302 11.1
2020-Jan-19 23:15 238 11.7
2020-Jan-19 22:46 234 12.2
2020-Jan-19 22:30 272 12.8
2020-Jan-19 22:16 258 12.8
2020-Jan-19 22:01 293 13.3
2020-Jan-19 21:45 255 2 gusting 13 13.9
2020-Jan-19 21:30 269 14.4
2020-Jan-19 21:16 322 14.4
2020-Jan-19 21:01 267 15.0
2020-Jan-19 20:46 287 15.6
2020-Jan-19 20:30 257 15.6
2020-Jan-19 20:17 226 15.6
2020-Jan-19 20:01 288 15.6
2020-Jan-19 19:45 302 15.6
2020-Jan-19 19:30 277 16.1
2020-Jan-19 19:15 236 16.1
2020-Jan-19 19:02 298 16.1
2020-Jan-19 18:45 243 16.1
2020-Jan-19 18:31 256 15.6
2020-Jan-19 18:15 274 15.0
2020-Jan-19 17:46 268 15.0
2020-Jan-19 17:15 261 15.0
2020-Jan-19 17:00 270 15.0
2020-Jan-19 16:47 040 1 gusting 9 15.0
2020-Jan-19 16:31 311 15.0
2020-Jan-19 16:17 236 15.6
2020-Jan-19 16:01 264 17.2
2020-Jan-19 15:46 256 17.2
2020-Jan-19 15:30 229 16.7
2020-Jan-19 15:15 237 16.7
2020-Jan-19 15:02 219 16.7
2020-Jan-19 14:48 284 16.7
2020-Jan-19 14:31 230 16.7
2020-Jan-19 14:16 259 16.7
2020-Jan-19 14:01 216 16.7
2020-Jan-19 13:34 212 16.7
2020-Jan-19 13:16 265 16.7
2020-Jan-19 13:00 262 16.7
2020-Jan-19 12:47 216 16.7
2020-Jan-19 12:30 255 16.7
2020-Jan-19 12:15 217 16.7
2020-Jan-19 12:00 262 16.7
2020-Jan-19 11:47 284 16.7
2020-Jan-19 11:31 292 17.2
2020-Jan-19 11:17 228 17.2
2020-Jan-19 11:01 168 17.2
2020-Jan-19 10:45 196 17.2
2020-Jan-19 10:32 232 16.7
2020-Jan-19 10:15 224 16.7
2020-Jan-19 09:46 254 16.7
2020-Jan-19 09:31 266 16.7
2020-Jan-19 09:17 278 16.7
2020-Jan-19 09:01 225 16.7
2020-Jan-19 08:46 269 16.7
2020-Jan-19 08:31 251 17.2
2020-Jan-19 08:15 249 17.2
2020-Jan-19 08:03 209 17.2
2020-Jan-19 07:48 242 16.7
2020-Jan-19 07:31 234 16.7
2020-Jan-19 07:16 248 16.7
2020-Jan-19 07:00 211 17.2
2020-Jan-19 06:45 263 17.8
2020-Jan-19 06:33 211 17.2
2020-Jan-19 06:16 301 0 gusting 9 17.2
2020-Jan-19 06:01 244 17.2
2020-Jan-19 05:46 217 1 gusting 8 17.2
2020-Jan-19 05:31 263 17.2
2020-Jan-19 05:16 267 17.2
2020-Jan-19 05:00 234 17.2
2020-Jan-19 04:32 204 16.7
2020-Jan-19 04:17 265 16.7
2020-Jan-19 04:02 271 16.7
2020-Jan-19 03:45 256 16.7
2020-Jan-19 03:30 192 16.1
2020-Jan-19 03:15 214 16.1
2020-Jan-19 02:46 269 15.0
2020-Jan-19 02:31 269 15.0
2020-Jan-19 02:16 252 14.4
2020-Jan-19 02:01 229 13.9
2020-Jan-19 01:45 229 13.9
2020-Jan-19 01:30 229 14.4
2020-Jan-19 01:02 229 14.4
2020-Jan-19 00:47 229 14.4
2020-Jan-19 00:31 229 14.4
2020-Jan-19 00:15 229 15.0
2020-Jan-19 00:00 227 15.0
2020-Jan-18 23:31 144 15.6
2020-Jan-18 23:16 142 16.1
2020-Jan-18 23:01 269 16.7
2020-Jan-18 22:45 311 16.7
2020-Jan-18 22:32 250 16.7
2020-Jan-18 22:16 298 17.2
2020-Jan-18 22:01 104 17.2
2020-Jan-18 21:45 065 17.8
2020-Jan-18 21:31 144 18.3
2020-Jan-18 21:15 223 18.3
2020-Jan-18 20:47 202 18.9
2020-Jan-18 20:31 180 18.9
2020-Jan-18 20:16 236 19.4
2020-Jan-18 20:01 266 18.9
2020-Jan-18 19:45 267 18.9
2020-Jan-18 19:30 277 18.9
2020-Jan-18 19:15 143 18.3
2020-Jan-18 19:02 169 18.3
2020-Jan-18 18:46 233 17.8
2020-Jan-18 18:30 063 17.8
2020-Jan-18 18:16 063 17.2
2020-Jan-18 18:00 046 17.2
2020-Jan-18 17:45 041 17.2
2020-Jan-18 17:16 011 16.1
2020-Jan-18 16:45 073 15.0
2020-Jan-18 16:30 128 14.4
2020-Jan-18 16:15 011 13.9
2020-Jan-18 15:47 061 4 gusting 12 12.2
2020-Jan-18 15:32 063 6 gusting 11 11.1
2020-Jan-18 15:15 051 3 gusting 10 10.6
2020-Jan-18 15:00 070 4 gusting 10 9.4
2020-Jan-18 14:45 055 9.4
2020-Jan-18 14:32 057 3 gusting 10 8.3
2020-Jan-18 14:15 028 1 gusting 11 7.8
2020-Jan-18 14:00 044 3 gusting 10 7.8
2020-Jan-18 13:46 005 2 gusting 8 7.2
2020-Jan-18 13:30 061 1 gusting 9 7.2
2020-Jan-18 13:01 055 7.2
2020-Jan-18 12:46 056 6.7
2020-Jan-18 12:32 071 6.7
2020-Jan-18 12:15 079 6.7
2020-Jan-18 12:01 030 0 gusting 8 6.7
2020-Jan-18 11:45 054 6.7
2020-Jan-18 11:17 051 7.2
2020-Jan-18 11:02 048 7.2
2020-Jan-18 10:46 039 7.2
2020-Jan-18 10:31 084 2 gusting 8 7.2
2020-Jan-18 10:16 064 6.7
2020-Jan-18 10:00 073 7.2
2020-Jan-18 09:45 045 3 gusting 7 7.2
2020-Jan-18 09:31 034 7.2
2020-Jan-18 09:16 017 7.2
2020-Jan-18 09:00 013 7.2
2020-Jan-18 08:46 042 1 gusting 8 7.2
2020-Jan-18 08:31 034 1 gusting 7 7.2
2020-Jan-18 08:16 053 7.2
2020-Jan-18 08:00 045 7.2